Regional Weather Roundup
Issued by NWS

Home | Current Version | Previous Version | Text Only | Print | Product List | Glossary On
Versions: 1 2 3 4 5 6 7 8 9 10 11 12 13 14 15 16 17 18 19 20 21 22 23 24 25 26 27 28 29 30 31 32 33 34 35 36 37 38 39 40 41 42 43 44 45 46 47 48 49 50
000
ASUS43 KTOP 191308
RWRKS

WEATHER ROUNDUP FOR KANSAS
NATIONAL WEATHER SERVICE GOODLAND KS
800 AM CDT THU OCT 19 2017

NOTE:  "FAIR" INDICATES FEW OR NO CLOUDS BELOW 12,000 FEET WITH NO
SIGNIFICANT WEATHER AND/OR OBSTRUCTIONS TO VISIBILITY.

KSZ001>006-013>018-027>032-041>047-191400-
NORTHWEST KANSAS

CITY           SKY/WX    TMP DP  RH WIND       PRES   REMARKS
GOODLAND       CLOUDY    34  32  92 W3        30.07S
HAYS           CLEAR     41  37  86 NW5       30.05S
HILL CITY      CLEAR     38  36  92 W3        30.06S
RUSSELL        CLEAR     43  40  89 W3        30.03S
$$

KSZ061>065-074>080-084>089-191400-
SOUTHWEST KANSAS

CITY           SKY/WX    TMP DP  RH WIND       PRES   REMARKS
DODGE CITY     CLOUDY    47  44  90 S5        30.06S
ELKHART          N/A     47  40  77 NW3         N/A
GARDEN CITY    CLOUDY    47  40  76 SE3       30.06R
GREAT BEND     CLEAR     42  40  92 S3        30.06S
LIBERAL        CLOUDY    44  41  89 CALM      30.06
PRATT          CLEAR     44  40  87 S6        30.07S
$$

KSZ066>073-081>083-090>101-191400-
SOUTHEAST KANSAS

CITY           SKY/WX    TMP DP  RH WIND       PRES   REMARKS
CHANUTE        PTCLDY    50  46  86 SE8       30.13S
COFFEYVILLE    CLEAR     50  47  89 S5        30.14R
HUTCHINSON     CLEAR     48  46  93 SE6       30.07R
MEDICINE LODGE   N/A     51  45  79 E7        30.07R
NEWTON         CLEAR     48  45  89 SE8       30.09R
PARSONS        CLEAR     53  47  79 S5        30.15R
WICHITA INTL   PTCLDY    50  47  89 SE7       30.08R
WICHITA JABRA  CLEAR     50  47  89 S7        30.08S
WICHITA MCCONL CLEAR     51  45  79 S7        30.08S
WINFIELD       CLEAR     52  47  83 SE6       30.11R
$$

KSZ007>012-019>026-033>040-048>060-102>105-191400-
NORTHEAST KANSAS

CITY           SKY/WX    TMP DP  RH WIND       PRES   REMARKS
CONCORDIA      CLEAR     43  43 100 CALM      30.04R
EMPORIA        CLEAR     51  46  83 S13       30.08S
LAWRENCE       CLEAR     45  45 100 NE3       30.10R FOG
MANHATTAN      CLEAR     45  45 100 CALM      30.06S
MARYSVILLE     CLEAR     45  45 100 CALM      30.06R
OLATHE IND     CLEAR     50  47  89 S6        30.11R
OLATHE EXE     CLEAR     51  47  86 S6        30.10S
SALINA         CLEAR     51  47  86 CALM      30.05S
TOPEKA BILLARD CLEAR     47  47 100 CALM      30.08S FOG
TOPEKA FORBES  CLEAR     51  47  86 S5        30.08R
$$




USA.gov is the U.S. government's official web portal to all federal, state and local government web resources and services.